Regional Weather Roundup
Issued by NWS Upton, NY

Current Version | Previous Version | Graphics & Text | Print | Product List | Glossary Off
Versions: 1 2 3 4 5 6 7 8 9 10 11 12 13 14 15 16 17 18 19 20 21 22 23 24 25 26 27 28 29 30 31 32 33 34 35 36 37 38 39 40 41 42 43 44 45 46 47 48 49 50

000
ASUS41 KOKX 301018
RWROKX

REGIONAL WEATHER ROUNDUP
NATIONAL WEATHER SERVICE NEW YORK NY
600 AM EDT SAT MAY 30 2015

NOTE: "FAIR" INDICATES FEW OR NO CLOUDS BELOW 12,000 FEET WITH NO
SIGNIFICANT WEATHER AND/OR OBSTRUCTIONS TO VISIBILITY.

NYZ071-072-176-178-NJZ106-104-301100-
NEW YORK CITY METRO AREA


CITY           SKY/WX    TMP DP  RH WIND       PRES   REMARKS
CENTRAL PARK   CLEAR     68  63  84 VRB6      30.23R
LAGUARDIA APRT PTCLDY    67  61  81 S7        30.20R
KENNEDY INTL   PTCLDY    64  61  90 S7        30.22S
NEWARK/LIBERTY MOCLDY    67  63  87 S3        30.21R
BRNX BOT. GARD   N/A     64  61  88 E5        30.24R
TETERBORO      CLEAR     66  61  84 S5        30.19R
$$

NYZ177-179-078>081-301100-
LONG ISLAND NEW YORK

CITY           SKY/WX    TMP DP  RH WIND       PRES   REMARKS
FARMINGDALE    FOG       63  63 100 S5        30.23R VSB 1
ISLIP          FOG       64  62  93 SW5       30.21S VSB 1
SHIRLEY        CLOUDY    62  61  96 SW3       30.23R FOG
WESTHAMPTON    CLOUDY    60  60 100 CALM      30.25R FOG
MONTAUK POINT    N/A     60  58  92 SE3       30.25R
$$

NYZ052-065-067-301100-
HUDSON VALLEY

CITY           SKY/WX    TMP DP  RH WIND       PRES   REMARKS
WHITE PLAINS   CLEAR     60  59  96 CALM      30.21R FOG
NEWBURGH       MOCLDY    64  63  94 CALM      30.20R
MONTGOMERY       N/A     62  60  93 MISG      30.19R
POUGHKEEPSIE   MOCLDY    64  59  83 SE3       30.18R
ALBANY         PTCLDY    67  56  67 S9        30.14S
$$

NJZ001-105-106-008-010-013-015-019>022-104-301100-
NEW JERSEY

CITY           SKY/WX    TMP DP  RH WIND       PRES   REMARKS
NEWARK/LIBERTY MOCLDY    67  63  87 S3        30.21R
TETERBORO      CLEAR     66  61  84 S5        30.19R
CALDWELL       CLEAR     62  58  86 CALM      30.21R
MORRISTOWN     CLEAR     61  57  88 CALM      30.21R
SOMERVILLE     CLEAR     59  56  89 CALM      30.19R
SUSSEX         CLOUDY    62  58  86 CALM      30.21R
ANDOVER          N/A     63  61  93 CALM      30.21R
TRENTON        CLEAR     66  63  90 S7        30.20R
MILLVILLE      MOCLDY    65  64  97 CALM      30.22R FOG
ATLANTIC CITY  CLOUDY    68  66  93 S7        30.22R
WRIGHTSTOWN    FOG       63  63 100 S7        30.19R VSB 3/4
TOMS RIVER     CLOUDY   N/A N/A N/A CALM      30.22R VSB 1/2
BELMAR         CLEAR     64  57  77 SW3       30.22R
$$

PAZ047>061-062-071-301100-
EASTERN PENNSYLVANIA

CITY           SKY/WX    TMP DP  RH WIND       PRES   REMARKS
PHILADELPHIA   MOCLDY    68  65  90 SE3       30.21R
ALLENTOWN      CLEAR     68  63  84 S3        30.19R
SCRANTON       PTCLDY    70  64  81 SW3       30.17R
$$

CTZ002-004>006-009-010-012-RIZ004-006-007-MAZ004-011-015-301100-
SOUTHERN NEW ENGLAND
 IN CT

CITY           SKY/WX    TMP DP  RH WIND       PRES   REMARKS
BRADLEY INTL   PTCLDY    61  58  90 S6        30.19S
HARTFORD       MOCLDY    60  58  92 S8        30.20S
DANBURY        PTCLDY    60  56  86 CALM      30.22R
WTRBRY/OXFORD  CLOUDY    61  54  77 CALM      30.24R VSB<1/4
BRIDGEPORT     CLEAR     62  60  93 CALM      30.22R FOG
MERIDEN        FOG       60  59  96 S5        30.22R VSB<1/4
NEW HAVEN      CLOUDY    60  60 100 CALM      30.22S FOG
CHESTER        FOG       57  57 100 S3        30.24R VSB<1/4
GROTON         FOG       58  57  97 CALM      30.23R VSB<1/4
WILLIMANTIC    FOG       56  55  97 CALM      30.23R VSB 1/2

 IN RI

CITY           SKY/WX    TMP DP  RH WIND       PRES   REMARKS
PROVIDENCE     FOG       58  57  97 S6        30.23R VSB 1/2
BLOCK ISLAND   CLOUDY    57  55  94 W7        30.25R VSB 1/4
WESTERLY       FOG       57  57 100 S3        30.24R VSB 1/4

 IN MA

CITY           SKY/WX    TMP DP  RH WIND       PRES   REMARKS
BOSTON         CLEAR     59  57  93 S5        30.21R
WORCESTER      CLEAR     61  55  81 W12       30.21R
WESTFIELD      CLEAR     58  56  93 CALM      30.19S
PROVINCETOWN   CLOUDY    61  57  88 SW10      30.23R VSB 1/4
NANTUCKET      CLOUDY    61  59  93 SW8       30.25R FOG
$$

ANZ330-335-338-340-345-350-353-355-301100-
COASTAL MARINE OBSERVATIONS


STATION/POSITION TIME  SKY/WX   TEMP    WIND        PRES    VSBY  WAVE
                                AIR SEA DIR/SP/G                  HT/PER
                 (UTC)          (F)     (DEG/KT/KT) (MB)    (MI)  (FT/S)
NY HARB ENTRANCE 0950            63 62  210/  8/  8 1022.7          2/ 8
4S FIRE IS       0903               59                N/A           2/ 8
20S FIRE ISLAND  0950            60 59  210/  2/  4 1023.4          2/ 9
GREAT SOUTH BAY  0930            64 69  230/ 10/ 10   N/A
23SW MTP         0950            58 56  230/  6/  6 1023.5          3/ 8
HUDSON CANYON    NOT AVBL
KINGS POINT      0900            65 62  170/  5/  6 1022.0
CENTRAL LI SOUND 0900            58 59  150/  4/  4   N/A
EASTERN LI SOUND 0900            56      40/  2/  2   N/A
ROBBINS REEF     0900            65     170/  7/  7 1021.4
$$


>>>>>>>>>>>>>>>>>>>>>>>>>>>> KEY <<<<<<<<<<<<<<<<<<<<<<<<<<<
>                                                          <
>     SKY/WX - SKY CONDITION/PRESENT WEATHER               <
>     TMP    - TEMPERATURE IN FAHRENHEIT                   <
>     DP     - DEWPOINT IN FAHRENHEIT                      <
>     RH     - RELATIVE HUMIDITY IN PERCENT                <
>     WIND   - DIRECTION AND SPEED IN MPH                  <
>     PRES   - MEAN SEA LEVEL PRESSURE IN INCHES OF HG     <
>     WCI    - WIND CHILL INDEX                            <
>     VSB    - VISIBILITY IN MILES                         <
>     HX     - HEAT INDEX                                  <
>     TC     - TEMPERATURE IN CELSIUS                      <
>     VRB    - VARIABLE WIND DIRECTION                     <
>                                                          <
>>>>>>>>>>>>>>>>>>>>>>>>>>>> KEY <<<<<<<<<<<<<<<<<<<<<<<<<<<




USA.gov is the U.S. government's official web portal to all federal, state and local government web resources and services.